Home   Weather   Trenton   Past weeks

Flag for USA Past Weather in Trenton, New Jersey, USA — Yesterday and Last 2 Weeks

Now
40 °F

Passing clouds.


Feels Like: 37 °F
Forecast: 37 / 51 °F
Wind: 5 mph from Southeast

Location: Mercer County Airport

Current Time: Dec 4, 2016 at 11:43:05 pm

Latest Report: Dec 4, 2016 at 10:53 pm


Visibility: 10 mi

Pressure: 30.11 "Hg

Humidity: 63%

Dew Point: 28 °F

Location of TrentonLocation

Past Weather in Trenton — Graph

°F

Trenton Temperature Yesterday

Maximum temperature yesterday: 50 °F (at 1:53 pm)
Minimum temperature yesterday: 41 °F (at 4:53 am)
Average temperature yesterday: 45 °F

High & Low Weather Summary for the Past Weeks

 TemperatureHumidityPressure
High60 °F (Nov 29, 3:53 pm)97% (Nov 30, 2:53 am)30.31 "Hg (Nov 30, 2:53 am)
Low29 °F (Nov 28, 6:53 am)30% (Nov 23, 3:53 pm)29.45 "Hg (Dec 1, 1:53 am)
Average44 °F63%29.99 "Hg
* Reported Nov 19 9:53 pm — Dec 4 9:53 pm, Trenton, Weather by CustomWeather, © 2016

Note: Actual official high and low records may vary slightly from our data, if they occured in-between our weather recording intervals... More about our weather records

Advertising

Trenton Weather History for the Previous 24 Hours

Scroll right to see more
 ConditionsComfort  
Time TempWeatherWind HumidityBarometerVisibility
9:53 pm
Sun, Dec 4
40 °FPassing clouds.No wind60%30.11 "Hg10 mi
8:53 pm40 °FClear.No wind60%30.14 "Hg10 mi
7:53 pm41 °FClear.No wind53%30.16 "Hg10 mi
6:53 pm42 °FClear.No wind49%30.16 "Hg10 mi
5:53 pm42 °FClear.No wind49%30.16 "Hg10 mi
4:53 pm44 °FClear.No wind41%30.16 "Hg10 mi
3:53 pm45 °FSunny.3 mph40%30.17 "Hg10 mi
2:53 pm46 °FSunny.5 mph40%30.17 "Hg10 mi
1:53 pm46 °FSunny.7 mph42%30.17 "Hg10 mi
12:53 pm46 °FSunny.6 mph42%30.19 "Hg10 mi
11:53 am46 °FSunny.8 mph44%30.20 "Hg10 mi
10:53 am45 °FSunny.7 mph45%30.22 "Hg10 mi
9:53 am45 °FScattered clouds.8 mph45%30.22 "Hg10 mi
8:53 am42 °FSunny.6 mph49%30.22 "Hg10 mi
7:53 am39 °FPassing clouds.No wind53%30.22 "Hg10 mi
6:53 am40 °FOvercast.5 mph51%30.22 "Hg10 mi
5:53 am40 °FPassing clouds.3 mph51%30.20 "Hg10 mi
4:53 am41 °FOvercast.6 mph49%30.19 "Hg10 mi
3:53 am41 °FOvercast.9 mph49%30.20 "Hg10 mi
2:53 am42 °FOvercast.12 mph49%30.19 "Hg10 mi
1:53 am42 °FOvercast.13 mph51%30.19 "Hg10 mi
12:53 am43 °FOvercast.9 mph51%30.18 "Hg10 mi
11:53 pm
Sat, Dec 3
44 °FOvercast.7 mph47%30.17 "Hg10 mi
Weather by CustomWeather, © 2016

See weather overviewHow to use our weather pages